Weather History for Lexington, NC

Change the Weather History Date:

Friday, April 5, 2013

  Actual Average (KINT) Record (KINT)
Temperature  
Mean Temperature 48 °F -  
Max Temperature 63 °F 65 °F 82 °F (1985)
Min Temperature 34 °F 45 °F 28 °F (1972)
Degree Days  
Heating Degree Days 16    
Moisture  
Dew Point 38 °F    
Average Humidity 73    
Maximum Humidity 100    
Minimum Humidity 33    
Precipitation  
Precipitation 0.00 in - - ()
Sea Level Pressure  
Sea Level Pressure 29.95 in    
Wind  
Wind Speed 2 mph (NNW)    
Max Wind Speed 8 mph    
Max Gust Speed -    
Visibility 8 miles    
Events      
Averages and records for this station are not official NWS values.
T = Trace of Precipitation, MM = Missing Value Source: NWS Daily Summary

Daily Weather History Graph

Daily Weather History Graph

Search for Another Location

Airport:

Trip Planner

Search our weather history database for the weather conditions in past years. The results will help you decide how hot, cold, wet, or windy it might be!

Date:

Astronomy

Apr. 05, 2013 Rise Set
Actual Time 7:01 AM EDT 7:46 PM EDT
Civil Twilight 6:35 AM EDT 8:12 PM EDT
Nautical Twilight 6:05 AM EDT 8:43 PM EDT
Astronomical Twilight 5:33 AM EDT 9:14 PM EDT
Moon 3:58 AM EDT (4/5) 3:17 PM EDT (4/5)
Length of Visible Light 13h 36m
Length of Day
12h 44m
Waning Crescent, 24% of the Moon is Illuminated
Apr 5
Waning Crescent
Apr 10
New
Apr 18
First Quarter
Apr 25
Full
May 2
Last Quarter

Hourly Weather History & Observations

Time (EDT) Temp. Windchill Dew Point Humidity Pressure Visibility Wind Dir Wind Speed Gust Speed Precip Events Conditions
12:15 AM 35.1 °F 32.2 °F 35.1 °F 100% 29.96 in 5.0 mi North 3.5 mph - N/A   Light Drizzle
12:35 AM 34.9 °F 30.8 °F 34.9 °F 100% 29.95 in 5.0 mi North 4.6 mph - N/A   Light Drizzle
12:55 AM 35.1 °F - 35.1 °F 100% 29.95 in 7.0 mi Calm Calm - N/A   Mostly Cloudy
1:15 AM 35.6 °F - 35.6 °F 100% 29.95 in 4.0 mi Calm Calm - N/A   Overcast
1:35 AM 35.1 °F 31.0 °F 35.1 °F 100% 29.94 in 5.0 mi NNW 4.6 mph - N/A   Overcast
1:55 AM 35.1 °F - 35.1 °F 100% 29.94 in 7.0 mi Calm Calm - N/A   Overcast
2:15 AM 34.9 °F 32.0 °F 34.9 °F 100% 29.93 in 7.0 mi North 3.5 mph - N/A   Overcast
2:35 AM 35.1 °F 32.2 °F 35.1 °F 100% 29.93 in 7.0 mi North 3.5 mph - N/A   Overcast
2:55 AM 35.1 °F - 35.1 °F 100% 29.93 in 10.0 mi Calm Calm - N/A   Overcast
3:15 AM 35.2 °F - 35.2 °F 100% 29.93 in 4.0 mi Calm Calm - N/A   Overcast
3:35 AM 35.6 °F - 35.6 °F 100% 29.93 in 3.0 mi Calm Calm - N/A   Overcast
3:55 AM 35.6 °F - 35.6 °F 100% 29.93 in 3.0 mi Calm Calm - N/A   Overcast
4:15 AM 35.8 °F - 35.8 °F 100% 29.93 in 3.0 mi Calm Calm - N/A   Overcast
4:35 AM 36.1 °F - 36.1 °F 100% 29.93 in 4.0 mi Calm Calm - N/A   Overcast
4:55 AM 36.5 °F - 36.5 °F 100% 29.92 in 5.0 mi Calm Calm - N/A   Overcast
5:15 AM 36.7 °F - 36.7 °F 100% 29.92 in 7.0 mi Calm Calm - N/A   Overcast
5:35 AM 36.9 °F 34.3 °F 36.9 °F 100% 29.91 in 7.0 mi North 3.5 mph - N/A   Overcast
5:55 AM 37.4 °F - 37.4 °F 100% 29.91 in 7.0 mi Calm Calm - N/A   Overcast
6:15 AM 37.4 °F 34.9 °F 37.4 °F 100% 29.91 in 4.0 mi North 3.5 mph - N/A   Overcast
6:35 AM 37.8 °F - 37.8 °F 100% 29.92 in 5.0 mi Calm Calm - N/A   Overcast
6:55 AM 38.1 °F - 38.1 °F 100% 29.93 in 10.0 mi Calm Calm - N/A   Overcast
7:15 AM 38.3 °F - 38.3 °F 100% 29.95 in 10.0 mi Calm Calm - N/A   Overcast
7:35 AM 38.5 °F - 38.5 °F 100% 29.94 in 10.0 mi Calm Calm - N/A   Overcast
7:55 AM 38.8 °F - 38.8 °F 100% 29.96 in 10.0 mi Calm Calm - N/A   Overcast
8:15 AM 39.4 °F - 39.4 °F 100% 29.96 in 4.0 mi Calm Calm - N/A   Mostly Cloudy
8:35 AM 39.7 °F - 39.7 °F 100% 29.96 in 4.0 mi Calm Calm - N/A   Mostly Cloudy
8:55 AM 41.0 °F 39.0 °F 41.0 °F 100% 29.96 in 10.0 mi NNW 3.5 mph - N/A   Scattered Clouds
9:15 AM 42.3 °F 40.5 °F 42.3 °F 100% 29.98 in 10.0 mi West 3.5 mph - N/A   Scattered Clouds
9:35 AM 43.7 °F 42.1 °F 43.7 °F 100% 29.98 in 7.0 mi NW 3.5 mph - N/A   Clear
9:55 AM 45.3 °F 44.0 °F 43.2 °F 92% 29.97 in 10.0 mi NW 3.5 mph - N/A   Clear
10:15 AM 47.3 °F - 43.0 °F 85% 29.97 in 10.0 mi NW 4.6 mph - N/A   Clear
10:35 AM 48.4 °F - 43.0 °F 82% 29.98 in 10.0 mi NW 5.8 mph - N/A   Clear
10:55 AM 50.2 °F - 43.5 °F 78% 29.98 in 10.0 mi North 4.6 mph - N/A   Clear
11:15 AM 52.3 °F - 43.3 °F 71% 29.98 in 10.0 mi NNW 8.1 mph - N/A   Clear
11:35 AM 52.7 °F - 42.4 °F 68% 29.97 in 10.0 mi NNW 6.9 mph - N/A   Clear
11:55 AM 53.2 °F - 42.6 °F 67% 29.96 in 10.0 mi NNW 6.9 mph - N/A   Clear
12:15 PM 55.6 °F - 42.6 °F 62% 29.97 in 10.0 mi North 6.9 mph - N/A   Clear
12:35 PM 55.0 °F - 41.9 °F 61% 29.96 in 10.0 mi North 6.9 mph - N/A   Scattered Clouds
12:55 PM 55.9 °F - 42.3 °F 60% 29.96 in 10.0 mi NNE 6.9 mph - N/A   Clear
1:15 PM 56.3 °F - 42.3 °F 59% 29.95 in 10.0 mi NW 5.8 mph - N/A   Scattered Clouds
1:35 PM 56.7 °F - 42.1 °F 58% 29.94 in 10.0 mi Calm Calm - N/A   Scattered Clouds
1:55 PM 57.9 °F - 42.4 °F 56% 29.93 in 10.0 mi NE 4.6 mph - N/A   Scattered Clouds
2:15 PM 58.6 °F - 41.7 °F 53% 29.93 in 10.0 mi NE 4.6 mph - N/A   Scattered Clouds
2:35 PM 59.9 °F - 41.5 °F 51% 29.92 in 10.0 mi North 3.5 mph - N/A   Scattered Clouds
2:55 PM 61.5 °F - 41.9 °F 49% 29.92 in 10.0 mi NNE 4.6 mph - N/A   Scattered Clouds
3:15 PM 59.0 °F - 41.2 °F 52% 29.91 in 10.0 mi Calm Calm - N/A   Scattered Clouds
3:35 PM 62.1 °F - 41.4 °F 47% 29.91 in 10.0 mi West 5.8 mph - N/A   Clear
3:55 PM 61.9 °F - 40.6 °F 46% 29.90 in 10.0 mi West 4.6 mph - N/A   Clear
4:15 PM 62.8 °F - 40.5 °F 44% 29.90 in 10.0 mi WNW 3.5 mph - N/A   Clear
4:35 PM 62.4 °F - 38.3 °F 41% 29.90 in 10.0 mi WNW 3.5 mph - N/A   Clear
4:55 PM 63.5 °F - 37.4 °F 38% 29.90 in 10.0 mi North 5.8 mph - N/A   Clear
5:15 PM 63.7 °F - 35.8 °F 35% 29.91 in 10.0 mi North 4.6 mph - N/A   Clear
5:35 PM 63.5 °F - 35.8 °F 36% 29.91 in 10.0 mi Calm Calm - N/A   Clear
5:55 PM 63.3 °F - 35.4 °F 35% 29.92 in 10.0 mi NNW 4.6 mph - N/A   Clear
6:15 PM 63.1 °F - 33.8 °F 33% 29.93 in 10.0 mi WNW 4.6 mph - N/A   Clear
6:35 PM 62.1 °F - 32.7 °F 33% 29.93 in 10.0 mi NNW 6.9 mph - N/A   Clear
6:55 PM 61.3 °F - 32.0 °F 33% 29.94 in 10.0 mi NNW 4.6 mph - N/A   Clear
7:15 PM 59.9 °F - 32.5 °F 36% 29.95 in 10.0 mi NW 3.5 mph - N/A   Clear
7:35 PM 58.5 °F - 33.1 °F 38% 29.96 in 10.0 mi NW 3.5 mph - N/A   Clear
7:55 PM 57.2 °F - 33.1 °F 40% 29.96 in 10.0 mi NW 3.5 mph - N/A   Clear
8:15 PM 55.4 °F - 33.8 °F 44% 29.97 in 10.0 mi Calm Calm - N/A   Clear
8:35 PM 53.6 °F - 34.3 °F 48% 29.98 in 10.0 mi Calm Calm - N/A   Clear
8:55 PM 51.6 °F - 34.5 °F 52% 29.99 in 10.0 mi Calm Calm - N/A   Clear
9:15 PM 51.4 °F - 34.7 °F 53% 30.00 in 10.0 mi Calm Calm - N/A   Clear
9:35 PM 49.8 °F - 34.5 °F 56% 30.01 in 10.0 mi Calm Calm - N/A   Clear
9:55 PM 49.6 °F - 34.9 °F 57% 30.02 in 10.0 mi Calm Calm - N/A   Clear
10:15 PM 47.1 °F - 35.2 °F 63% 30.03 in 10.0 mi Calm Calm - N/A   Clear
10:35 PM 46.6 °F - 34.9 °F 64% 30.03 in 10.0 mi Calm Calm - N/A   Clear
10:55 PM 45.5 °F - 35.8 °F 69% 30.03 in 10.0 mi Calm Calm - N/A   Clear
11:15 PM 45.1 °F - 35.8 °F 70% 30.03 in 10.0 mi Calm Calm - N/A   Clear
11:35 PM 46.6 °F - 35.4 °F 65% 30.03 in 10.0 mi Calm Calm - N/A   Clear
11:55 PM 45.1 °F - 35.2 °F 68% 30.04 in 10.0 mi Calm Calm - N/A   Clear